SL-16 R/B, 25400

Orbit data source: Space-Track

SL-16 R/B, 25400 is space debris in SSO originally from a launch on Fri, 10 Jul 1998 UTC launched from the Tyuratam Missile And Space Complex (TTMTR). Debris objects in space refer to the collection of defunct objects orbiting the Earth. Examples of debris include non-operational satellites, rocket bodies, and fragments generated from explosions, collisions, or faulty payload assembly.

Loading next visibility...
Identifier
25400, 1998-043G
Orbit
SSO
Country
Flag of CISCIS
Related business
Manufacturer
Yuzhnoe
Mission
Spacecraft
Bus & Motor
11S772, Unknown motor
Mass
9,000 kg wet, 9,000 kg dry
Launch date (UTC)
1998-07-10 (28 years ago)
Launch vehicle
Unknown
Launch site
Tyuratam Missile And Space Complex (TTMTR)
Object type
Payload
Rocket body
Debris
Shape & HBR
Cyl, 5.2 m
Radar Cross Section
37.829 m², Large (>1 m²)

Expand to show TLE details & history
Last TLE update: 9 hours ago

TLE from 9 hours ago
0 SL-16 R/B
1 25400U 98043G   26093.85002027  .00000117  00000-0  68031-4 0  9990
2 25400  98.8297  47.3985 0008971 305.6096  54.4247 14.26056012442571
Epoch: 2026-04-03T20:24Z
TLE epoch observation values (Epoch: 2026-04-03T20:24:01.751Z)
Latitude
-0.00003°
Longitude
-90.78703°
Altitude
804.117 km
Speed
7.453 km/s
True Right ascension
03h 09m 35s
True Declination
0° 00' 00"
Sunlit
Object was in daylight at epoch
Visualization orbit readout
Latitude
Unknown
Longitude
Unknown
Altitude
Unknown
Speed
Unknown
Apparent Right ascension
Unknown
Apparent Declination
Unknown
Sunlit
N/A
Visualization observer readout
Local Sidereal Time
11:15:28
Azimuth
Unknown
Elevation
Unknown
Doppler factor
Unknown
Orbital elements
Apogee altitude
808.542 km
Perigee altitude
795.659 km
Semi-major axis
7,180.238 km
Eccentricity
0.0009
Inclination
98.8297°
RAAN
47.3985°
Arg. of periapsis
305.6096°
True anomaly
54.50837°
Mean anomaly
54.4247°
Eccentric anomaly
54.46653°
Mean motion
3.56726 °/min
Orbital period
100.92 mins
BSTAR
0.000068031
Loading maneuver chart data...
Computing Atmospheric mass density...
Loading historical data...
Loading historical data...
Loading historical data...
Loading historical data...
Loading historical data...
Loading historical data...
Loading historical data...

Documentation

Showing up to 5 results
|